EW8484 Weather Reports


Display with metric or nautical units.
time (UTC)temp
F
wind
direction
speed
MPH
gust
MPH
rain 1hr
in
rain 24hr
in
rain mn
in
humidity
%
barometer
mb
20260504185026 72 355 3.0 8.0 0.00 0.00 0.00 26 1009.6
20260504184526 71 174 3.0 5.0 0.00 0.00 0.00 21 1009.5
20260504184026 71 146 3.0 7.0 0.00 0.00 0.00 26 1009.6
20260504183526 71 255 3.0 8.0 0.00 0.00 0.00 25 1009.8
20260504183026 71 222 3.0 8.0 0.00 0.00 0.00 22 1009.7
20260504182526 71 253 3.0 10.0 0.00 0.00 0.00 21 1009.8
20260504182026 71 227 3.0 13.0 0.00 0.00 0.00 21 1009.7
20260504181527 71 181 3.0 9.0 0.00 0.00 0.00 25 1009.7
20260504181047 71 167 3.0 7.0 0.00 0.00 0.00 25 1009.9
20260504180526 71 205 4.0 8.0 0.00 0.00 0.00 22 1009.9
20260504180026 71 148 3.0 9.0 0.00 0.00 0.00 22 1009.8
20260504175527 71 171 4.0 13.0 0.00 0.00 0.00 22 1009.9
20260504175026 71 167 3.0 9.0 0.00 0.00 0.00 23 1009.9
20260504174526 71 223 3.0 8.0 0.00 0.00 0.00 21 1009.9
20260504174026 71 208 3.0 9.0 0.00 0.00 0.00 25 1010.0
20260504173526 70 178 3.0 7.0 0.00 0.00 0.00 26 1009.9
20260504173026 70 297 3.0 6.0 0.00 0.00 0.00 21 1010.0
20260504172526 70 267 3.0 5.0 0.00 0.00 0.00 23 1010.2
20260504172026 70 242 3.0 9.0 0.00 0.00 0.00 19 1010.3
20260504171526 70 153 3.0 6.0 0.00 0.00 0.00 29 1010.1
20260504171046 69 88 2.0 8.0 0.00 0.00 0.00 26 1010.2
20260504170526 69 114 3.0 8.0 0.00 0.00 0.00 25 1010.5
20260504151026 65 212 3.0 8.0 0.00 0.00 0.00 26 1011.7
20260504150526 65 238 3.0 7.0 0.00 0.00 0.00 30 1011.9
20260504141026 62 233 3.0 6.0 0.00 0.00 0.00 33 1012.3
20260504140526 62 224 3.0 7.0 0.00 0.00 0.00 34 1012.3
20260504130526 56 272 2.0 8.0 0.00 0.00 0.00 46 1012.8
20260504110548 36 23 1.0 2.0 0.00 0.00 0.00 50 1013.2
20260504100527 32 0.0 1.0 0.00 0.00 0.00 46 1012.8
20260504081527 36 0.0 0.0 0.00 0.00 0.00 43 1012.7
20260504081047 37 0.0 0.0 0.00 0.00 0.00 43 1012.5
20260504080547 37 0.0 0.0 0.00 0.00 0.00 44 1012.7
20260504050527 35 0.0 2.0 0.00 0.00 0.00 62 1012.7
20260504045526 35 0.0 0.0 0.00 0.00 0.00 62 1012.8
20260504045027 35 0.0 0.0 0.00 0.00 0.00 62 1012.7
20260504044526 35 0.0 0.0 0.00 0.00 0.00 62 1012.8
20260504044026 35 0.0 0.0 0.00 0.00 0.00 62 1012.9
20260504043526 35 0.0 0.0 0.00 0.00 0.00 62 1012.9
20260504043047 35 0.0 0.0 0.00 0.00 0.00 62 1012.8
20260504042546 35 0.0 0.0 0.00 0.00 0.00 62 1012.8
20260504042026 36 0.0 0.0 0.00 0.00 0.00 62 1012.8
20260504041526 36 0.0 0.0 0.00 0.00 0.00 62 1012.8
20260504041026 35 0.0 0.0 0.00 0.00 0.00 62 1012.9
20260504040526 35 0.0 0.0 0.00 0.00 0.00 62 1012.8
20260504040027 35 0.0 0.0 0.00 0.00 0.00 61 1012.8
20260504035527 35 0.0 0.0 0.00 0.00 0.00 61 1012.7
20260504035047 35 0.0 0.0 0.00 0.00 0.00 61 1012.7
20260504034526 36 0.0 0.0 0.00 0.00 0.00 61 1012.6
20260504034027 36 0.0 0.0 0.00 0.00 0.00 61 1012.5
20260504033527 36 0.0 0.0 0.00 0.00 0.00 61 1012.3
20260504033026 36 0.0 0.0 0.00 0.00 0.00 61 1012.4
20260504032527 36 0.0 0.0 0.00 0.00 0.00 62 1012.4
20260504032027 36 0.0 0.0 0.00 0.00 0.00 60 1012.3
20260504031547 36 0.0 0.0 0.00 0.00 0.00 60 1012.2
20260504031026 36 0.0 0.0 0.00 0.00 0.00 60 1012.1
20260504030527 36 0.0 0.0 0.00 0.00 0.00 60 1012.2
20260504030027 36 0.0 0.0 0.00 0.00 0.00 59 1012.2
20260504025527 36 0.0 0.0 0.00 0.00 0.00 59 1012.3
20260504025026 36 0.0 0.0 0.00 0.00 0.00 58 1012.2
20260504024527 36 0.0 0.0 0.00 0.00 0.00 58 1012.2
20260504024027 36 0.0 0.0 0.00 0.00 0.00 57 1012.2
20260504023547 37 0.0 0.0 0.00 0.00 0.00 56 1012.2
20260504023026 37 0.0 0.0 0.00 0.00 0.00 56 1012.2
20260504022526 37 0.0 0.0 0.00 0.00 0.00 57 1012.2
20260504022026 37 0.0 0.0 0.00 0.00 0.00 57 1012.2
20260504021527 38 0.0 0.0 0.00 0.00 0.00 57 1012.1
20260504021047 38 0.0 1.0 0.00 0.00 0.00 57 1012.2
20260504020527 38 0.0 0.0 0.00 0.00 0.00 57 1012.1
20260504020027 38 0.0 1.0 0.00 0.00 0.00 55 1012.1
20260504015526 38 0.0 2.0 0.00 0.00 0.00 55 1012.0
20260504015047 37 0.0 2.0 0.00 0.00 0.00 56 1012.0
20260504014547 37 0.0 2.0 0.00 0.00 0.00 57 1011.9
20260504014026 37 0.0 2.0 0.00 0.00 0.00 57 1011.9
20260504013547 37 0.0 2.0 0.00 0.00 0.00 57 1011.8
20260504013047 38 0.0 2.0 0.00 0.00 0.00 56 1011.8
20260504012547 38 0.0 1.0 0.00 0.00 0.00 55 1011.8
20260504012027 38 0.0 0.0 0.00 0.00 0.00 54 1011.7
20260504011547 38 0.0 0.0 0.00 0.00 0.00 54 1011.6
20260504011027 39 0.0 0.0 0.00 0.00 0.00 53 1011.6
20260504010526 39 0.0 0.0 0.00 0.00 0.00 53 1011.6
20260504010027 40 0.0 0.0 0.00 0.00 0.00 52 1011.5
20260504005526 40 0.0 0.0 0.00 0.00 0.00 52 1011.3
20260504005047 41 0.0 0.0 0.00 0.00 0.00 51 1011.3
20260504004526 41 0.0 0.0 0.00 0.00 0.00 51 1011.1
20260504004047 42 0.0 0.0 0.00 0.00 0.00 50 1011.1
20260504003546 42 0.0 1.0 0.00 0.00 0.00 47 1011.1
20260504003026 43 0.0 0.0 0.00 0.00 0.00 46 1010.9
20260504002526 43 0.0 0.0 0.00 0.00 0.00 47 1010.9
20260504002026 44 0.0 0.0 0.00 0.00 0.00 44 1010.9
20260504001526 45 0.0 0.0 0.00 0.00 0.00 43 1010.9
20260504001026 45 0.0 0.0 0.00 0.00 0.00 43 1010.7
20260504000526 46 0.0 0.0 0.00 0.00 0.00 45 1010.8
20260504000026 47 0.0 0.0 0.00 0.00 0.00 44 1010.6
20260503235526 47 0.0 0.0 0.00 0.00 0.00 37 1010.7
20260503235026 48 355 1.0 2.0 0.00 0.00 0.00 37 1010.6
20260503234526 48 0.0 1.0 0.00 0.00 0.00 35 1010.6
20260503234026 49 0.0 2.0 0.00 0.00 0.00 33 1010.6
20260503233526 49 0.0 1.0 0.00 0.00 0.00 32 1010.6
20260503233026 50 0.0 2.0 0.00 0.00 0.00 31 1010.5
20260503232547 50 346 1.0 4.0 0.00 0.00 0.00 30 1010.5
20260503232026 50 338 1.0 7.0 0.00 0.00 0.00 31 1010.5
20260503231526 51 355 1.0 4.0 0.00 0.00 0.00 32 1010.4
20260503231026 51 344 1.0 6.0 0.00 0.00 0.00 33 1010.4
20260503230526 51 352 4.0 11.0 0.00 0.00 0.00 27 1010.4
20260503230026 51 346 4.0 9.0 0.00 0.00 0.00 29 1010.4
20260503225526 51 335 2.0 7.0 0.00 0.00 0.00 29 1010.3
20260503225026 51 339 5.0 11.0 0.00 0.00 0.00 29 1010.3
20260503224606 51 354 4.0 12.0 0.00 0.00 0.00 29 1010.3
20260503224026 51 327 2.0 9.0 0.00 0.00 0.00 31 1010.2
20260503223526 51 339 2.0 10.0 0.00 0.00 0.00 29 1010.3
20260503223026 51 351 1.0 3.0 0.00 0.00 0.00 29 1010.3
20260503222526 51 345 3.0 9.0 0.00 0.00 0.00 29 1010.3
20260503222026 52 345 4.0 12.0 0.00 0.00 0.00 29 1010.2
20260503221526 52 348 5.0 12.0 0.00 0.00 0.00 29 1010.2
20260503221026 52 357 5.0 11.0 0.00 0.00 0.00 29 1010.3
20260503220526 52 344 4.0 11.0 0.00 0.00 0.00 31 1010.3
20260503220046 52 346 5.0 10.0 0.00 0.00 0.00 30 1010.2
20260503215526 52 352 6.0 12.0 0.00 0.00 0.00 27 1010.3
20260503215026 52 345 3.0 6.0 0.00 0.00 0.00 29 1010.2
20260503214526 52 336 5.0 11.0 0.00 0.00 0.00 28 1010.2
20260503214026 52 341 4.0 10.0 0.00 0.00 0.00 31 1010.3
20260503213526 52 341 5.0 12.0 0.00 0.00 0.00 28 1010.2
20260503213026 52 334 4.0 8.0 0.00 0.00 0.00 27 1010.1
20260503212526 52 340 5.0 11.0 0.00 0.00 0.00 27 1010.0
20260503212026 52 344 7.0 13.0 0.00 0.00 0.00 27 1009.9
20260503211526 52 343 8.0 16.0 0.00 0.00 0.00 27 1010.0
20260503211026 52 344 7.0 14.0 0.00 0.00 0.00 28 1009.9
20260503210526 52 342 7.0 16.0 0.00 0.00 0.00 26 1009.8
20260503210026 53 343 8.0 20.0 0.00 0.00 0.00 25 1009.9
20260503205526 53 343 4.0 9.0 0.00 0.00 0.00 27 1009.7
20260503205026 53 343 4.0 13.0 0.00 0.00 0.00 32 1009.7
20260503204526 52 328 4.0 13.0 0.00 0.00 0.00 31 1009.8
20260503204147 52 314 4.0 10.0 0.00 0.00 0.00 31 1009.8
20260503203526 51 342 4.0 9.0 0.00 0.00 0.00 32 1009.7
20260503203026 51 337 4.0 11.0 0.00 0.00 0.00 31 1009.7
20260503202526 52 333 5.0 13.0 0.00 0.00 0.00 29 1009.6
20260503202026 52 337 4.0 11.0 0.00 0.00 0.00 30 1009.6
20260503201526 52 298 3.0 10.0 0.00 0.00 0.00 30 1009.6
20260503201025 52 335 4.0 11.0 0.00 0.00 0.00 31 1009.5
20260503200526 52 345 7.0 15.0 0.00 0.00 0.00 29 1009.5
20260503200026 52 338 5.0 11.0 0.00 0.00 0.00 29 1009.5
20260503195546 52 344 4.0 14.0 0.00 0.00 0.00 30 1009.4
20260503195026 52 344 6.0 12.0 0.00 0.00 0.00 30 1009.6
20260503194526 52 355 5.0 14.0 0.00 0.00 0.00 30 1009.5
20260503194025 51 355 5.0 17.0 0.00 0.00 0.00 31 1009.5
20260503193526 51 335 3.0 8.0 0.00 0.00 0.00 34 1009.5
20260503193026 51 343 4.0 11.0 0.00 0.00 0.00 31 1009.4
20260503192525 51 305 2.0 7.0 0.00 0.00 0.00 29 1009.5
20260503192026 51 323 3.0 10.0 0.00 0.00 0.00 30 1009.6
20260503191526 51 344 5.0 12.0 0.00 0.00 0.00 30 1009.6
20260503191026 51 340 3.0 8.0 0.00 0.00 0.00 33 1009.7
20260503190528 51 341 4.0 10.0 0.00 0.00 0.00 34 1009.6
20260503190026 51 346 6.0 18.0 0.00 0.00 0.00 31 1009.9
20260503185526 51 347 7.0 17.0 0.00 0.00 0.00 30 1009.8